Location: Casone le Fosse
(44.6547°N, 12.1103°E)
Time: 11:58:44
(UTC+00:00)

Cosmos 1408 - Pass Details

Date: 29 October 2020
Orbit: 470 x 492 km, 82.6° (Epoch: 27 November)

Event Time Altitude Azimuth Distance (km) Brightness Sun altitude
Rises 16:38:46 0° 8° (N) 2,557 6.0 -6.7°
Reaches altitude 10° 16:41:29 10° 30° (NNE) 1,676 4.9 -7.2°
Maximum altitude 16:43:54 17° 71° (ENE) 1,318 4.1 -7.6°
Drops below altitude 10° 16:46:19 10° 112° (ESE) 1,676 4.8 -8.1°
Sets 16:49:01 0° 134° (SE) 2,555 5.9 -8.5°
